Overview Statistics Trail Chart Weather Telemetry Raw packets
 

This is the latest recevied weather packets stored in our database for station/object 9W2CHF-3. If no packets are shown the sender has not sent any weather packets the latest 10 day(s).

<< 6 7 8 9 10 11 12 >>
Time Temp. Humidity Pressure Rain* Wind** Luminosity Snow
1777546010 34.44° C 67% 1008.9 hPa - - - -
1777544810 35° C 65% 1008.5 hPa - - - -
1777543610 36.67° C 60% 1008.5 hPa - - - -
1777542410 37.22° C 58% 1008.3 hPa - - - -
1777541210 38.33° C 53% 1008.2 hPa - - - -
1777540015 40° C 50% 1008 hPa - - - -
1777538810 38.89° C 50% 1008.1 hPa - - - -
1777537609 39.44° C 50% 1007.9 hPa - - - -
1777536409 38.33° C 52% 1008.1 hPa - - - -
1777535209 41.67° C 44% 1008.3 hPa - - - -
1777534008 41.11° C 46% 1008.6 hPa - - - -
1777532808 41.67° C 44% 1008.9 hPa - - - -
1777531607 41.11° C 46% 1008.8 hPa - - - -
1777530412 41.67° C 45% 1009.2 hPa - - - -
1777529212 41.11° C 45% 1009.6 hPa - - - -
1777528020 42.22° C 45% 1009.9 hPa - - - -
1777526812 41.67° C 46% 1010.1 hPa - - - -
1777525612 40° C 50% 1010.4 hPa - - - -
1777524412 41.11° C 47% 1010.6 hPa - - - -
1777523212 40.56° C 49% 1010.9 hPa - - - -
1777522012 41.11° C 47% 1011.1 hPa - - - -
1777520812 40.56° C 48% 1011.3 hPa - - - -
1777519611 40° C 51% 1011.4 hPa - - - -
1777518411 39.44° C 53% 1011.4 hPa - - - -
1777517211 38.33° C 56% 1011.6 hPa - - - -

* Rain since midnight (hover to see other rain measurements)
** Current wind speed in m/s (hover to see current wind gust speed)